QTR3X OTHH-HDAM

Flight info

Callsign QTR3X
Flight time N/A
Altitude 35000
Route DATRI L564 BAT DCT KUTNA DCT MIGMA DCT GOBRO L425 ITUVO B400 RIGAM B404 DEMGO UB404 HARGA UR775 LUBAR LUBAR1U
Aircraft A320/M-SDE3FGHIRWY/LB1

Departure

Time N/A
Airport Hamad International Airport (OTHH)

Arrival

Time 2026-05-05 15:38
Airport Djibouti-Ambouli Airport (HDAM)
Time Latitude Longitude Altitude Speed Heading
2026-05-05 15:19 10.19275 43.77126 35869 ft 459 kts 335°
2026-05-05 15:19 10.25050 43.74368 35859 ft 459 kts 335°
2026-05-05 15:20 10.30833 43.71609 35850 ft 459 kts 335°
2026-05-05 15:20 10.36599 43.68838 35841 ft 459 kts 335°
2026-05-05 15:21 10.42359 43.66073 35844 ft 457 kts 335°
2026-05-05 15:21 10.48116 43.63307 34951 ft 463 kts 335°
2026-05-05 15:21 10.51040 43.61836 33918 ft 474 kts 328°
2026-05-05 15:22 10.53737 43.59873 33045 ft 478 kts 322°
2026-05-05 15:22 10.56377 43.57815 32312 ft 478 kts 322°
2026-05-05 15:22 10.59020 43.55761 31612 ft 479 kts 322°
2026-05-05 15:22 10.61654 43.53709 30992 ft 476 kts 322°
2026-05-05 15:23 10.64271 43.51655 30424 ft 473 kts 322°
2026-05-05 15:23 10.66862 43.49613 29893 ft 469 kts 322°
2026-05-05 15:23 10.69431 43.47582 29187 ft 467 kts 322°
2026-05-05 15:23 10.71992 43.45556 28441 ft 466 kts 322°
2026-05-05 15:24 10.74546 43.43533 27708 ft 464 kts 322°
2026-05-05 15:24 10.77083 43.41523 27002 ft 462 kts 323°
2026-05-05 15:24 10.79579 43.39551 26325 ft 459 kts 323°
2026-05-05 15:24 10.82092 43.37569 25664 ft 456 kts 323°
2026-05-05 15:25 10.84592 43.35599 25025 ft 453 kts 323°
2026-05-05 15:25 10.87076 43.33639 24393 ft 450 kts 323°
2026-05-05 15:25 10.89544 43.31693 23782 ft 447 kts 323°
2026-05-05 15:25 10.91993 43.29760 23154 ft 443 kts 323°
2026-05-05 15:26 10.94416 43.27844 22453 ft 440 kts 324°
2026-05-05 15:26 10.96823 43.25939 21770 ft 437 kts 323°
2026-05-05 15:26 10.99211 43.24049 21111 ft 433 kts 324°
2026-05-05 15:26 11.01583 43.22171 20469 ft 430 kts 323°
2026-05-05 15:27 11.03939 43.20305 19843 ft 428 kts 324°
2026-05-05 15:27 11.06274 43.18459 19230 ft 419 kts 323°
2026-05-05 15:27 11.08536 43.16668 18646 ft 405 kts 323°
2026-05-05 15:27 11.10730 43.14931 17982 ft 395 kts 323°
2026-05-05 15:28 11.12874 43.13236 17240 ft 386 kts 324°
2026-05-05 15:28 11.14969 43.11578 16545 ft 377 kts 324°
2026-05-05 15:28 11.17008 43.09966 15869 ft 368 kts 324°
2026-05-05 15:28 11.19016 43.08378 15219 ft 360 kts 324°
2026-05-05 15:29 11.20978 43.06825 14598 ft 354 kts 324°
2026-05-05 15:29 11.22910 43.05290 13936 ft 351 kts 324°
2026-05-05 15:29 11.24862 43.03741 12763 ft 361 kts 324°
2026-05-05 15:29 11.26855 43.02163 12059 ft 361 kts 324°
2026-05-05 15:30 11.28782 43.00631 11919 ft 343 kts 325°
2026-05-05 15:30 11.30590 42.99191 11708 ft 326 kts 325°
2026-05-05 15:30 11.32357 42.97786 11220 ft 319 kts 326°
2026-05-05 15:30 11.34100 42.96406 10659 ft 316 kts 326°
2026-05-05 15:31 11.35835 42.95034 10098 ft 315 kts 326°
2026-05-05 15:31 11.37557 42.93669 9532 ft 313 kts 326°
2026-05-05 15:31 11.39269 42.92311 8959 ft 311 kts 326°
2026-05-05 15:31 11.40987 42.91006 8396 ft 305 kts 333°
2026-05-05 15:32 11.42894 42.90156 7847 ft 296 kts 349°
2026-05-05 15:32 11.44905 42.89884 7272 ft 289 kts
2026-05-05 15:32 11.46911 42.89920 6708 ft 288 kts
2026-05-05 15:32 11.48912 42.89951 6147 ft 288 kts
2026-05-05 15:33 11.50880 42.89978 5890 ft 275 kts
2026-05-05 15:33 11.52724 42.90067 5728 ft 256 kts 15°
2026-05-05 15:33 11.54261 42.90874 5155 ft 252 kts 49°
2026-05-05 15:33 11.55031 42.92448 4542 ft 254 kts 83°
2026-05-05 15:34 11.54984 42.94240 4045 ft 252 kts 92°
2026-05-05 15:34 11.54926 42.96001 3657 ft 246 kts 89°
2026-05-05 15:34 11.54916 42.97726 3301 ft 240 kts 89°
2026-05-05 15:34 11.54917 42.99400 2986 ft 234 kts 88°
2026-05-05 15:35 11.54914 43.01043 2660 ft 226 kts 89°
2026-05-05 15:35 11.54906 43.02582 2375 ft 215 kts 89°
2026-05-05 15:35 11.54893 43.04070 2095 ft 206 kts 89°
2026-05-05 15:35 11.54878 43.05502 1818 ft 199 kts 89°
2026-05-05 15:36 11.54861 43.06907 1562 ft 196 kts 91°
2026-05-05 15:36 11.54844 43.08255 1318 ft 183 kts 91°
2026-05-05 15:36 11.54828 43.09500 1091 ft 167 kts 89°
2026-05-05 15:36 11.54812 43.10625 875 ft 151 kts 91°
2026-05-05 15:37 11.54797 43.11659 666 ft 142 kts 90°
2026-05-05 15:37 11.54782 43.12662 467 ft 142 kts 88°
2026-05-05 15:37 11.54766 43.13658 247 ft 141 kts 90°
2026-05-05 15:37 11.54752 43.14643 87 ft 139 kts 89°
2026-05-05 15:38 11.54740 43.15547 61 ft 109 kts 90°
2026-05-05 15:38 11.54731 43.16139 58 ft 55 kts 90°
2026-05-05 15:38 11.54726 43.16432 58 ft 33 kts 91°
2026-05-05 15:38 11.54679 43.16514 59 ft 8 kts 184°
2026-05-05 15:39 11.54600 43.16514 58 ft 16 kts 182°
2026-05-05 15:39 11.54556 43.16408 52 ft 22 kts 270°
2026-05-05 15:39 11.54556 43.16302 58 ft 23 kts 271°
2026-05-05 15:39 11.54561 43.16129 59 ft 26 kts 271°
2026-05-05 15:40 11.54563 43.15940 60 ft 28 kts 271°
2026-05-05 15:40 11.54564 43.15734 60 ft 30 kts 270°
2026-05-05 15:40 11.54568 43.15541 56 ft 23 kts 271°
2026-05-05 15:40 11.54570 43.15368 60 ft 25 kts 270°
2026-05-05 15:41 11.54573 43.15192 60 ft 20 kts 272°
2026-05-05 15:41 11.54661 43.15148 61 ft 17 kts 360°
2026-05-05 15:41 11.54779 43.15147 62 ft 18 kts 358°
2026-05-05 15:41 11.54915 43.15147 58 ft 21 kts
2026-05-05 15:42 11.55006 43.15115 55 ft 12 kts 270°
2026-05-05 15:42 11.55004 43.15029 60 ft 7 kts 271°
2026-05-05 15:42 11.55007 43.14975 60 ft 9 kts 281°
2026-05-05 15:42 11.55060 43.14956 59 ft 10 kts
2026-05-05 15:43 11.55134 43.14957 59 ft 5 kts
2026-05-05 15:43 11.55138 43.14957 59 ft 0 kts